Montpelier, VT

11:59 PM EST on February 06, 2016 (GMT -0500)
Knapp State

Weather History for KMPV - September, 2013

Change the Weather History Date:

Tuesday, September 17, 2013

  Actual Average Record
Temperature  
Mean Temperature 46 °F 57 °F  
Max Temperature 60 °F 68 °F 81 °F (2015)
Min Temperature 31 °F 46 °F 29 °F (1948)
Degree Days  
Heating Degree Days 19 8  
Month to date heating degree days 145 101  
Since 1 July heating degree days 238 209  
Cooling Degree Days 0 0  
Month to date cooling degree days 29 16  
Year to date cooling degree days 323 260  
Moisture  
Dew Point 36 °F    
Average Humidity 74    
Maximum Humidity 100    
Minimum Humidity 47    
Precipitation  
Precipitation 0.00 in 0.11 in 1.24 in (1999)
Month to date precipitation 3.61 1.61  
Year to date precipitation 28.90 26.41  
Sea Level Pressure  
Sea Level Pressure 30.44 in    
Wind  
Wind Speed 2 mph (West)    
Max Wind Speed 8 mph    
Max Gust Speed 13 mph    
Visibility 7 miles    
Events Fog    
T = Trace of Precipitation, MM = Missing Value Source: NWS Daily Summary

Daily Weather History Graph

Daily Weather History Graph

Search for Another Location

Airport or City:

Trip Planner

Search our weather history database for the weather conditions in past years. The results will help you decide how hot, cold, wet, or windy it might be!

Date:

Astronomy

Sep. 17, 2013 Rise Set
Actual Time 6:31 AM EDT 6:56 PM EDT
Civil Twilight 6:02 AM EDT 7:25 PM EDT
Nautical Twilight 5:28 AM EDT 7:59 PM EDT
Astronomical Twilight 4:53 AM EDT 8:34 PM EDT
Moon 5:43 PM EDT (9/17) 4:19 AM EDT (9/17)
Length of Visible Light 13h 22m
Length of Day
12h 24m
Waxing Gibbous, 96% of the Moon is Illuminated
Sep 17
Waxing Gibbous
Sep 19
Full
Sep 26
Last Quarter
Oct 4
New
Oct 11
First Quarter

Hourly Weather History & Observations

Time (EDT) Temp. Windchill Dew Point Humidity Pressure Visibility Wind Dir Wind Speed Gust Speed Precip Events Conditions
12:51 AM 35.1 °F 32.2 °F 33.1 °F 92% 30.40 in 10.0 mi South 3.5 mph - N/A   Partly Cloudy
1:51 AM 33.1 °F - 32.0 °F 96% 30.41 in 10.0 mi Calm Calm - N/A   Clear
2:51 AM 33.1 °F - 32.0 °F 96% 30.41 in 10.0 mi Calm Calm - N/A   Partly Cloudy
3:21 AM 30.2 °F 26.7 °F 30.2 °F 100% 30.39 in 1.0 mi South 3.5 mph - N/A   Mist
3:28 AM 32.0 °F - 30.2 °F 93% 30.38 in 0.5 mi Calm Calm - N/A Fog Fog
3:32 AM 33.8 °F - 32.0 °F 93% 30.39 in 1.2 mi Calm Calm - N/A   Partly Cloudy
3:35 AM 33.8 °F - 33.8 °F 100% 30.39 in 4.0 mi Calm Calm - N/A   Partly Cloudy
3:51 AM 32.0 °F - 30.9 °F 96% 30.43 in 10.0 mi Calm Calm - N/A   Clear
4:23 AM 32.0 °F - 30.2 °F 93% 30.40 in 8.0 mi Calm Calm - N/A   Scattered Clouds
4:51 AM 30.9 °F - 30.0 °F 96% 30.44 in 8.0 mi Calm Calm - N/A   Mostly Cloudy
4:54 AM 30.2 °F - 30.2 °F 100% 30.40 in 1.2 mi Calm Calm - N/A   Mostly Cloudy
5:01 AM 32.0 °F - 30.2 °F 93% 30.41 in 0.2 mi Calm Calm - N/A Fog Fog
5:51 AM 32.0 °F - 30.9 °F 96% 30.46 in 0.2 mi Calm Calm - N/A Fog Fog
6:51 AM 32.0 °F - 30.9 °F 96% 30.49 in 0.2 mi Calm Calm - N/A Fog Fog
7:51 AM 32.0 °F - 32.0 °F 100% 30.51 in 0.2 mi Calm Calm - N/A Fog Fog
8:51 AM 36.0 °F - 36.0 °F 100% 30.52 in 0.5 mi Calm Calm - N/A Fog Fog
9:03 AM 37.4 °F - 37.4 °F 100% 30.49 in 1.2 mi Calm Calm - N/A   Overcast
9:05 AM 37.4 °F - 37.4 °F 100% 30.49 in 2.0 mi Calm Calm - N/A   Overcast
9:13 AM 37.4 °F - 37.4 °F 100% 30.49 in 7.0 mi Calm Calm - N/A   Mostly Cloudy
9:30 AM 39.2 °F - 39.2 °F 100% 30.49 in 7.0 mi Calm Calm - N/A   Scattered Clouds
9:51 AM 41.0 °F - 39.9 °F 96% 30.53 in 10.0 mi Calm Calm - N/A   Clear
10:51 AM 48.9 °F - 39.0 °F 69% 30.52 in 10.0 mi West 4.6 mph - N/A   Clear
11:51 AM 52.0 °F - 36.0 °F 54% 30.51 in 10.0 mi Variable 3.5 mph - N/A   Clear
12:51 PM 54.0 °F - 37.0 °F 53% 30.49 in 10.0 mi South 3.5 mph - N/A   Clear
1:51 PM 55.9 °F - 37.9 °F 51% 30.47 in 10.0 mi WNW 5.8 mph - N/A   Clear
2:51 PM 59.0 °F - 39.0 °F 48% 30.44 in 10.0 mi WNW 8.1 mph - N/A   Clear
3:51 PM 59.0 °F - 39.0 °F 48% 30.43 in 10.0 mi Calm Calm - N/A   Clear
4:51 PM 59.0 °F - 39.0 °F 48% 30.41 in 10.0 mi West 3.5 mph - N/A   Clear
5:51 PM 57.9 °F - 39.9 °F 51% 30.40 in 10.0 mi NW 4.6 mph - N/A   Clear
6:51 PM 52.0 °F - 43.0 °F 71% 30.40 in 10.0 mi WNW 3.5 mph - N/A   Clear
7:51 PM 46.0 °F - 42.1 °F 86% 30.41 in 10.0 mi Calm Calm - N/A   Clear
8:51 PM 45.0 °F - 41.0 °F 86% 30.41 in 10.0 mi Calm Calm - N/A   Clear
9:51 PM 42.1 °F - 39.9 °F 92% 30.41 in 10.0 mi Calm Calm - N/A   Clear
10:51 PM 41.0 °F - 39.9 °F 96% 30.40 in 10.0 mi Calm Calm - N/A   Clear
11:51 PM 41.0 °F - 39.9 °F 96% 30.38 in 10.0 mi Calm Calm - N/A   Clear